sat.trackr.live / text

‹ back to catalog

STARLINK-35223

NORAD 65494 · 2025-198C

PAYLOAD ACTIVE UNKNOWN

§ Identity

Operator
Country
US
Launch date
2025-09-05
Launch site
AFETR
Launch vehicle
Mass (kg)
RCS (m²)

Purposes: comms

External: N2YO · Heavens-Above · Gunter

§ Orbital elements

Epoch: 2026-05-24T19:06:43.562592Z

Period
93.85 min
Inclination
53.1572°
Eccentricity
0.0000890
Mean motion
15.34398692 rev/d
Perigee alt
462.1 km
Apogee alt
463.3 km
Semi-major
6,840.8 km
B*
5.1508e-4
RAAN
276.6907°
Arg perigee
61.6533°
Mean anomaly
298.4560°
Rev number
4,028

§ Raw data

STARLINK-352231 65494U 25198C   26144.79633753  .00017066  00000+0  51508-3 0  99942 65494  53.1572 276.6907 0000890  61.6533 298.4560 15.34398692 40289

JSON: /api/v1/satellites/65494 · /tle

For live sub-satellite position, see the globe view (requires WebGL).

§ Visibility from observer

Set your observer location to see the next 7 days of passes ≥ 10°. The values pass through the URL so the page stays shareable.

No JS? Fill the form by hand. The geolocation button needs JavaScript.